Hourly Data Report for October 04, 2017

All times are specified in Local Standard Time (LST). Add 1 hour to adjust for Daylight Saving Time where and when it is observed.

FLIN FLON
MANITOBA

54°41'00.000" N
101°41'00.000" W
303.90 m
5050919
71954
WFO

Download Data

Hourly Data (October 2017)
Hourly Data Report for October 4, 2017
Temp Definition
°C
Dew Point Temp Definition
°C
Rel Hum Definition
%
Wind Dir Definition
10's deg

Wind Spd Definition
km/h
Visibility Definition
km
Stn Press Definition
kPa
Hmdx Definition


Wind Chill Definition


Weather Definition


TIME
00:00 6.7 -0.9 58 22 22   97.97     LegendNANA
01:00 6.4 -0.3 62 24 15   97.91     LegendNANA
02:00 6.6 0.0 63 24 17   97.83     LegendNANA
03:00 6.4 0.2 64 24 14   97.75     LegendNANA
04:00 6.7 -0.3 61 26 18   97.72     LegendNANA
05:00 6.1 0.2 66 27 13   97.73     LegendNANA
06:00 5.8 0.2 67 27 12   97.72     LegendNANA
07:00 5.8 0.7 70 27 12   97.74     LegendNANA
08:00 6.3 0.8 68 30 8   97.79     LegendNANA
09:00 8.1 1.2 62 31 17   97.84     LegendNANA
10:00 8.0 1.1 62 34 19   97.93     LegendNANA
11:00 8.8 0.6 57 34 24   97.98     LegendNANA
12:00 8.3 0.8 59 34 26   98.05     LegendNANA
13:00 8.3 -1.3 51 35 26   98.11     LegendNANA
14:00 9.6 -0.4 50 34 21   98.17     LegendNANA
15:00 8.5 -0.7 53 33 18   98.22     LegendNANA
16:00 8.2 -0.5 54 34 19   98.26     LegendNANA
17:00 7.4 -0.9 55 34 16   98.27     LegendNANA
18:00 6.6 -0.9 59 33 12   98.29     LegendNANA
19:00 5.1 -1.0 64 33 4   98.33     LegendNANA
20:00 1.9 -1.2 80   0   98.34     LegendNANA
21:00 2.5 -1.2 76 31 5   98.35     LegendNANA
22:00 0.3 -1.8 85 31 8   98.34     LegendNANA
23:00 1.6 -1.0 83 30 9   98.34     LegendNANA

Notes on Data Quality.

Legend

  • E = Estimated
  • M = Missing
  • NA = Not Available
  • ‡ = Partner data that is not subject to review by the National Climate Archives
Date modified: